Location: Warszawa
(52.2500°N, 21.0000°E)
Time: 20:21:18
(UTC+02:00)

Vanguard 2 - Pass Details

Date: 06 February 2023
Orbit: 553 x 2927 km, 32.9° (Epoch: 27 March)

Event Time Altitude Azimuth Distance (km) Brightness Sun altitude
Rises 18:34:23 0° 184° (S) 4,787 11.7 -19.0°
Reaches altitude 10° 18:39:43 10° 161° (SSE) 4,319 11.1 -19.8°
Maximum altitude 18:44:50 14° 135° (SE) 4,450 11.0 -20.6°
Enters shadow 18:45:54 14° 130° (SE) 4,542 11.0 -20.7°
